Theta_e
328 324 314 320 321 321 319 317 315 321 328 327 327 329 331 333 334 335 334 335 336 337 340 342 347 344 339 341 345 348 350 358 357 355 352 350 356 354 360 361 362 362 363 365
325 315 323 322 322 319 318 316 315 320 325 328 326 328 331 332 332 334 336 334 335 336 338 343 346 345 343 339 342 346 349 356 357 355 354 352 353 353 354 361 363 366 366 364
318 322 323 319 318 315 313 313 315 317 323 326 326 324 329 332 333 334 336 338 337 335 336 340 342 343 341 340 341 343 349 355 359 359 355 358 359 356 350 351 359 359 364 364
320 324 318 318 316 317 311 316 316 317 318 312 325 305 312 331 330 332 333 335 337 338 340 341 340 340 342 344 344 345 348 357 358 361 361 360 351 353 352 352 362 359 362 361
317 319 319 317 317 318 315 318 316 317 317 316 319 315 323 332 329 330 332 334 336 339 341 339 342 343 345 348 345 348 350 356 359 361 362 356 357 353 351 352 359 363 365 362
321 325 321 320 320 319 319 319 319 318 316 304 308 314 311 324 330 333 332 334 336 338 340 343 344 345 345 346 347 348 351 355 359 359 359 360 358 356 355 352 351 355 356 359
318 318 321 322 317 319 318 316 307 307 305 306 314 316 316 325 329 335 334 334 335 338 339 341 342 343 345 345 345 348 352 357 358 357 358 359 359 359 358 356 350 354 348 361
309 307 317 320 317 315 315 314 307 301 302 308 314 311 312 327 330 335 337 335 336 336 338 340 342 344 344 345 346 349 350 355 354 357 358 363 359 355 354 355 352 350 349 349
312 310 319 318 319 318 314 311 316 310 311 307 309 316 323 327 329 332 333 334 335 336 336 338 341 343 344 346 347 348 355 357 358 354 360 357 358 359 357 365 357 353 355 350
317 310 317 318 319 319 316 319 310 312 304 303 307 312 314 322 325 330 332 333 335 337 337 338 340 342 344 344 346 348 350 353 352 351 354 355 356 359 359 358 361 359 357 358
318 315 313 316 314 313 314 313 314 313 310 305 303 308 321 323 329 329 332 335 337 337 338 339 340 342 345 345 345 344 346 347 348 352 353 355 355 354 357 355 358 360 360 362
318 315 310 312 318 320 318 315 315 309 307 309 311 309 326 324 328 332 332 336 339 341 340 341 343 344 344 345 346 346 346 348 350 353 355 352 353 355 353 356 355 355 357 362
316 313 308 308 314 317 314 316 316 315 314 311 308 308 321 327 327 331 333 336 340 342 340 343 344 345 347 347 348 347 349 349 351 353 352 352 351 353 353 353 354 355 358 358
321 315 311 306 309 312 311 314 316 315 309 311 306 313 320 324 325 330 331 336 338 341 341 342 343 346 348 352 351 353 350 351 351 351 351 353 352 352 351 353 356 356 358 358
318 312 314 314 313 314 314 313 314 313 314 309 308 312 317 323 325 331 334 337 338 340 340 343 343 344 349 352 353 355 353 354 354 356 355 356 361 359 360 359 359 359 361 365
320 313 315 313 315 314 312 314 315 314 314 314 315 314 321 326 332 332 334 336 339 341 342 345 346 347 349 351 354 355 357 355 359 359 359 367 365 365 363 363 363 369 367 366
319 315 312 308 313 313 309 313 314 315 317 316 312 317 324 326 330 331 333 335 338 341 343 343 345 346 348 350 355 355 358 357 358 360 363 364 365 365 365 364 363 362 361 362
319 318 315 310 313 301 315 318 318 314 317 319 318 322 323 327 332 333 335 335 336 341 344 345 345 344 344 348 352 357 357 362 362 362 363 365 362 360 361 360 357 358 357 354
322 318 312 309 309 313 315 317 317 315 317 322 321 321 325 327 331 332 336 339 340 340 344 346 347 345 350 352 357 358 357 359 361 362 361 360 360 358 357 355 353 353 349 346
321 321 315 312 308 305 315 320 324 322 312 324 324 324 325 327 321 328 336 339 342 342 343 345 349 350 351 356 358 358 359 361 360 361 360 359 358 354 350 348 347 345 344 341
315 315 312 312 309 312 320 323 325 311 315 325 327 326 327 328 333 334 338 340 344 345 348 351 351 350 354 358 359 359 360 359 359 357 352 349 348 347 346 346 346 345 344 342
312 312 312 313 309 307 323 322 318 325 328 328 327 328 329 332 334 333 337 339 345 346 348 350 351 353 357 359 359 358 357 354 351 347 345 346 346 342 342 344 344 343 342 339
310 315 312 314 315 321 322 323 325 328 327 325 326 326 330 332 335 334 337 340 345 347 349 351 351 355 357 359 360 355 350 350 346 344 343 343 345 342 342 340 339 335 340 336
315 319 314 315 319 318 318 319 321 322 321 322 324 324 327 330 334 336 335 339 345 348 350 351 351 353 354 357 358 352 347 346 343 342 342 341 339 338 339 335 335 333 332 331
308 312 310 313 318 320 321 320 318 319 320 320 322 323 323 326 328 333 338 339 342 350 352 351 351 352 354 356 351 346 345 344 341 341 339 338 336 337 336 330 326 332 321 318
308 306 304 303 311 316 320 323 319 316 317 318 318 320 322 324 325 328 331 340 342 345 354 353 354 354 354 351 346 344 344 343 341 338 336 334 335 334 333 331 323 307 307 305
Wind_Speed
13 11 10 14 8 6 3 6 2 8 8 9 6 14 13 12 11 19 15 18 17 21 15 17 10 15 15 15 13 11 11 12 7 5 6 4 3 3 5 5 5 4 4 5
14 10 4 6 6 3 4 7 7 7 8 12 9 12 12 13 12 12 19 18 18 19 19 16 16 17 17 14 14 12 10 9 7 8 5 2 2 1 4 6 6 6 4 2
9 28 9 5 8 8 3 3 7 9 13 15 10 9 11 14 12 14 14 20 19 15 22 20 19 18 16 18 14 13 11 9 8 5 3 4 2 3 5 6 5 5 4 5
4 3 5 9 6 10 12 4 4 7 12 8 18 6 27 18 17 16 16 15 18 24 18 18 21 18 14 15 15 14 13 11 10 8 5 4 4 4 6 3 5 4 4 3
17 8 8 9 9 7 8 3 7 9 13 9 10 6 17 19 17 17 16 18 17 18 24 20 21 18 19 20 17 14 14 13 10 11 7 6 6 3 4 2 3 3 6 5
23 19 14 11 6 5 5 10 11 11 8 9 25 9 17 7 15 17 17 18 18 18 18 21 22 23 19 17 18 17 16 13 12 9 9 8 5 5 4 3 4 4 4 5
17 16 18 9 12 8 9 14 4 6 2 10 16 4 16 12 11 19 19 19 17 17 18 18 19 19 20 20 16 13 12 14 13 12 11 11 10 9 7 5 7 5 3 5
14 7 15 10 12 9 11 16 7 5 6 4 4 12 6 11 5 17 18 17 18 17 18 19 18 18 19 18 21 18 17 12 15 14 13 10 10 9 9 9 7 6 5 2
11 12 6 3 8 11 5 8 12 14 3 5 7 10 12 10 10 14 17 18 18 18 17 17 18 18 17 18 18 19 16 15 14 16 12 12 11 12 9 8 7 6 7 6
15 5 8 14 8 13 17 11 6 5 4 6 3 11 10 9 11 12 17 16 17 17 17 17 16 17 16 17 17 17 17 16 15 15 14 13 13 12 11 10 9 8 8 6
18 11 4 9 15 3 10 13 12 9 12 11 8 5 10 8 12 13 16 17 17 16 16 16 15 16 15 15 17 17 17 17 16 15 14 13 12 13 13 12 10 10 9 8
17 11 13 16 7 8 11 7 17 8 10 16 4 7 10 5 12 11 11 17 18 17 16 16 15 15 15 14 15 16 17 16 16 15 13 13 13 12 12 12 11 10 9 8
14 12 13 12 13 13 10 13 15 6 12 6 3 4 5 5 9 10 12 14 14 17 17 16 16 14 14 14 13 13 13 14 14 14 14 14 14 13 13 12 10 10 9 8
7 14 19 10 11 16 10 18 7 15 4 10 10 11 16 12 12 9 7 9 13 17 17 16 15 14 12 11 12 11 12 12 13 12 12 11 11 11 11 10 8 7 7 8
10 17 18 17 19 17 18 30 6 11 13 4 21 8 4 15 13 9 9 11 12 16 19 15 14 14 14 13 12 12 12 11 11 9 8 7 7 7 5 4 5 6 6 7
12 15 10 15 15 17 18 13 15 7 8 11 10 12 8 16 15 11 11 13 14 16 17 17 15 15 15 15 12 12 12 11 8 10 9 8 7 6 6 5 7 5 1 4
12 11 14 15 15 11 15 16 14 8 10 10 7 8 7 11 12 12 12 13 14 16 19 18 17 16 15 15 14 13 12 11 9 9 8 8 8 7 5 5 5 5 5 4
14 15 10 13 16 5 26 10 13 8 20 9 14 10 4 6 11 11 12 12 13 15 16 15 14 13 13 11 12 11 13 10 10 10 10 9 9 7 7 7 7 5 5 5
14 13 13 11 15 20 26 9 12 14 8 7 6 4 3 5 12 11 12 11 11 13 14 14 13 13 11 13 13 12 14 14 13 12 10 8 8 9 9 8 7 6 6 5
17 17 13 15 18 18 20 12 17 6 5 5 3 2 4 3 12 10 14 13 12 15 15 14 14 13 14 14 14 14 14 13 12 12 10 9 8 8 8 8 7 6 6 6
12 11 15 14 16 18 13 10 7 14 5 6 7 5 3 5 11 7 12 13 13 15 15 14 14 13 14 15 16 15 15 13 12 11 11 9 9 9 9 9 8 7 6 7
16 13 13 15 19 22 12 5 8 9 10 8 7 6 5 5 4 3 7 14 15 16 16 16 13 14 14 15 14 15 14 14 13 12 11 10 10 8 8 9 8 8 7 7
11 8 9 9 7 9 10 11 11 11 9 8 5 7 6 7 8 3 5 13 14 15 15 16 15 16 15 14 13 15 14 13 13 12 12 11 10 10 9 9 9 8 6 7
4 5 6 10 3 6 5 7 8 8 6 5 6 6 7 8 9 8 5 11 12 14 15 14 16 17 15 14 12 14 15 14 14 13 12 11 11 10 10 8 7 6 5 4
11 3 7 11 14 7 6 5 4 4 5 5 5 6 6 8 8 9 7 5 10 14 15 14 15 14 14 13 13 15 14 14 14 13 12 12 10 10 8 10 8 10 9 8
11 14 12 11 14 6 6 2 6 4 4 3 5 6 5 6 6 7 6 6 8 12 15 15 16 16 15 15 14 14 14 14 14 13 11 10 10 10 9 8 10 17 11 15
Wind_Direction
204 269 6 296 4 352 295 285 171 124 140 206 231 131 163 175 167 152 172 170 197 190 167 164 123 174 165 197 181 192 176 144 166 177 196 188 205 159 159 142 134 153 181 188
255 352 230 355 303 236 207 208 154 121 170 242 148 141 164 178 176 175 161 187 193 177 171 162 181 212 173 198 188 190 191 177 199 175 187 234 345 105 12 106 146 182 207 219
68 263 311 278 249 226 191 335 145 161 192 222 141 129 178 177 183 170 181 184 177 191 171 173 192 208 180 186 189 190 195 186 191 248 200 143 353 216 204 176 162 167 197 194
166 308 324 293 324 336 100 25 249 208 214 121 229 161 260 180 187 180 180 192 185 175 199 175 193 199 186 192 186 191 192 198 185 197 239 129 275 311 55 212 106 182 187 209
278 242 336 304 14 342 56 269 252 234 257 231 189 247 198 170 186 182 189 180 194 187 179 193 188 191 189 200 181 191 192 198 212 179 242 186 233 241 202 83 99 211 184 216
270 277 274 273 313 300 311 236 228 222 243 35 234 297 5 209 188 188 186 181 188 187 196 190 189 179 199 197 182 186 190 196 193 206 190 224 282 290 331 74 312 210 150 182
247 239 233 210 255 187 237 240 241 214 163 234 223 207 179 184 172 175 179 181 182 184 188 202 195 191 191 192 194 171 206 188 200 199 205 202 214 224 245 234 243 17 265 161
270 196 196 163 247 278 200 285 260 293 345 148 226 122 256 100 115 155 166 175 174 182 180 194 203 199 191 198 187 182 199 209 200 203 210 208 213 221 219 219 259 274 309 315
242 172 225 208 251 250 234 251 309 295 199 230 123 280 116 119 138 149 162 169 172 179 179 187 190 198 203 196 200 190 183 195 212 209 210 214 209 227 228 238 216 225 246 258
261 235 195 156 228 244 271 342 262 337 357 10 312 319 78 147 152 166 159 176 172 177 181 178 187 190 192 197 201 201 195 195 202 215 205 210 210 215 226 239 231 253 280 284
245 255 166 183 212 315 198 230 226 170 174 243 227 118 71 133 155 166 170 180 173 180 179 178 184 178 183 195 191 199 200 198 206 211 218 207 211 215 213 229 221 229 240 242
217 243 233 221 169 200 311 323 279 242 312 342 54 93 25 79 143 159 184 175 173 182 180 179 175 171 175 190 187 193 193 199 203 207 212 216 213 229 219 220 232 229 231 232
211 234 258 247 207 179 234 255 269 282 272 259 328 157 223 189 129 164 170 178 181 183 185 176 173 176 171 183 189 192 193 192 208 198 198 212 204 209 226 232 225 235 216 221
305 236 249 268 40 359 325 268 268 293 312 25 18 129 206 148 132 147 155 162 185 187 185 177 177 174 180 189 188 195 194 195 196 200 201 191 216 206 222 204 214 211 216 226
248 253 268 274 122 233 251 245 248 231 305 47 226 342 33 116 124 148 155 164 180 190 183 178 188 166 188 190 201 188 211 191 191 196 184 190 200 210 202 211 202 219 229 237
232 271 286 288 298 202 239 272 219 234 276 287 330 298 104 100 116 152 162 172 175 188 181 189 201 176 190 182 196 180 201 183 180 162 200 168 178 177 186 200 217 217 104 68
242 236 257 272 281 291 229 252 235 274 248 286 296 48 14 115 143 161 170 179 180 189 184 183 192 187 190 171 181 177 187 172 171 165 177 151 176 170 127 116 109 115 95 94
274 284 272 274 276 137 283 71 1 126 257 342 338 79 2 142 153 157 165 176 184 186 190 182 194 182 187 173 161 170 176 159 154 156 154 134 116 124 124 121 113 109 93 80
236 256 276 273 275 284 213 198 222 241 95 47 338 359 42 254 133 154 165 177 181 184 189 188 186 181 166 139 138 149 146 149 148 145 123 136 141 141 140 136 128 119 115 109
239 244 244 255 266 238 269 74 358 318 246 47 31 62 333 220 209 149 173 172 168 169 181 177 169 159 142 139 149 151 143 141 142 136 133 136 133 131 125 125 127 115 125 126
219 234 260 243 255 269 30 79 204 228 99 96 60 29 327 282 36 28 168 171 168 170 164 163 163 157 151 157 157 150 142 140 129 128 128 131 131 122 122 121 126 129 93 96
272 278 249 237 255 247 7 290 308 89 102 81 73 48 360 333 328 274 219 176 173 171 162 161 161 155 157 158 157 147 139 126 129 132 132 132 139 133 126 121 115 112 121 118
256 310 325 329 24 48 34 48 43 51 82 77 56 45 8 9 355 311 193 177 177 174 163 166 165 158 161 160 161 147 130 136 136 137 136 142 123 120 125 125 131 137 163 155
227 81 268 311 185 86 81 79 52 33 57 48 55 30 20 5 23 2 240 182 183 175 168 177 166 166 165 161 154 134 144 143 142 137 140 134 136 136 139 154 170 153 153 149
287 152 274 265 268 270 217 163 78 37 22 24 19 10 15 352 19 2 351 284 198 181 172 185 172 171 161 153 148 148 150 149 142 145 148 154 143 156 135 64 10 91 54 21
263 265 263 260 271 321 325 115 87 312 319 334 339 336 348 329 347 353 359 312 274 214 178 187 175 168 157 157 149 154 154 155 152 157 164 160 161 165 131 132 85 51 53 49